This is the latest recevied weather packets stored in our database for station/object KC3SOZ. If no packets are shown the sender has not sent any weather packets the latest 10 day(s).
| Time | Temp. | Humidity | Pressure | Rain* | Wind** | Luminosity | Snow |
|---|---|---|---|---|---|---|---|
| 1777726612 | 7.22° C | 84% | 1015.5 hPa | 0 mm | - | 328 W/m² | - |
| 1777726310 | 6.67° C | 86% | 1015.6 hPa | 0 mm | - | 256 W/m² | - |
| 1777726007 | 6.67° C | 86% | 1015.6 hPa | 0 mm | - | 217 W/m² | - |
| 1777725704 | 6.67° C | 87% | 1015.6 hPa | 0 mm | - | 207 W/m² | - |
| 1777725402 | 6.67° C | 87% | 1015.6 hPa | 0 mm | - | 260 W/m² | - |
| 1777725099 | 6.67° C | 87% | 1015.8 hPa | 0 mm | - | 303 W/m² | - |
| 1777724796 | 6.67° C | 86% | 1015.7 hPa | 0 mm | - | 218 W/m² | - |
| 1777724492 | 6.67° C | 87% | 1015.4 hPa | 0 mm | - | 179 W/m² | - |
| 1777724191 | 6.67° C | 87% | 1015.4 hPa | 0 mm | - | 172 W/m² | - |
| 1777723888 | 6.67° C | 88% | 1015.5 hPa | 0 mm | - | 229 W/m² | - |
| 1777723584 | 6.11° C | 88% | 1015.5 hPa | 0 mm | - | 193 W/m² | - |
| 1777723281 | 6.11° C | 88% | 1015.5 hPa | 0 mm | - | 183 W/m² | - |
| 1777722979 | 6.11° C | 88% | 1015.4 hPa | 0 mm | - | 161 W/m² | - |
| 1777722674 | 6.11° C | 89% | 1015.6 hPa | 0 mm | - | 120 W/m² | - |
| 1777722371 | 6.11° C | 89% | 1015.5 hPa | 0 mm | - | 103 W/m² | - |
| 1777722068 | 6.11° C | 89% | 1015.4 hPa | 0 mm | - | 101 W/m² | - |
| 1777721765 | 5.56° C | 90% | 1015.3 hPa | 0 mm | - | 105 W/m² | - |
| 1777721464 | 5.56° C | 93% | 1015.3 hPa | 0 mm | - | 76 W/m² | - |
| 1777721161 | 5.56° C | 95% | 1015.3 hPa | 0 mm | - | 72 W/m² | - |
| 1777720859 | 5.56° C | 95% | 1015.4 hPa | 0 mm | - | 63 W/m² | - |
| 1777720556 | 5° C | 93% | 1015.4 hPa | 0 mm | - | 53 W/m² | - |
| 1777720253 | 5° C | 92% | 1015.3 hPa | 0 mm | - | 51 W/m² | - |
| 1777719951 | 5.56° C | 92% | 1015.4 hPa | 0 mm | - | 56 W/m² | - |
| 1777719648 | 5.56° C | 90% | 1015.4 hPa | 0 mm | - | 53 W/m² | - |
| 1777719345 | 5° C | 90% | 1015.4 hPa | 0 mm | - | 45 W/m² | - |
* Rain latest hour (hover to see other rain measurements)
** Current wind speed in m/s (hover to see current wind gust speed)